EW2415 Weather Reports


Display with metric or nautical units.
time (UTC)temp
F
wind
direction
speed
MPH
gust
MPH
rain 1hr
in
rain 24hr
in
rain mn
in
humidity
%
barometer
mb
20210731182004 88 275 6.0 6.0 0.00 0.00 0.01 48 1012.7
20210731181005 88 293 2.0 4.0 0.00 0.00 0.01 48 1012.9
20210731180004 87 252 0.0 5.0 0.00 0.00 0.01 51 1012.9
20210731175003 87 241 2.0 4.0 0.00 0.00 0.01 48 1013.2
20210731174005 87 269 0.0 3.0 0.00 0.00 0.01 49 1013.2
20210731173004 86 269 2.0 4.0 0.00 0.00 0.01 50 1013.3
20210731172005 85 309 1.0 5.0 0.00 0.00 0.01 54 1013.3
20210731171004 85 259 3.0 4.0 0.00 0.00 0.01 52 1013.5
20210731170006 85 25 0.0 3.0 0.00 0.00 0.01 53 1013.4
20210731165004 84 303 0.0 2.0 0.00 0.00 0.01 56 1013.3
20210731164004 84 355 0.0 2.0 0.00 0.00 0.01 57 1013.3
20210731163004 83 211 0.0 1.0 0.00 0.00 0.01 61 1013.2
20210731162005 82 152 0.0 0.0 0.00 0.00 0.01 61 1013.3
20210731161004 81 152 0.0 0.0 0.00 0.00 0.01 63 1013.2
20210731160005 80 150 0.0 0.0 0.00 0.00 0.01 66 1013.3
20210731155004 79 150 0.0 0.0 0.00 0.00 0.01 67 1013.4
20210731154004 79 146 0.0 0.0 0.00 0.00 0.01 68 1013.4
20210731153004 78 145 0.0 0.0 0.00 0.00 0.01 71 1013.3
20210731152005 76 145 0.0 0.0 0.00 0.00 0.01 77 1013.3
20210731151004 76 146 0.0 1.0 0.00 0.00 0.01 78 1013.3
20210731150005 74 147 0.0 0.0 0.00 0.00 0.01 82 1013.3
20210731145004 73 147 0.0 0.0 0.00 0.00 0.01 84 1013.3
20210731144004 72 90 0.0 0.0 0.00 0.00 0.01 86 1013.2
20210731143004 71 90 0.0 0.0 0.00 0.00 0.01 88 1013.0
20210731142004 71 90 0.0 0.0 0.00 0.00 0.01 89 1013.0
20210731141004 70 90 0.0 1.0 0.00 0.00 0.01 89 1012.8
20210731140004 70 92 0.0 0.0 0.00 0.00 0.01 89 1012.8
20210731135005 70 99 0.0 0.0 0.00 0.00 0.01 89 1012.7
20210731134005 69 99 0.0 0.0 0.00 0.00 0.01 90 1012.4
20210731133004 69 99 0.0 0.0 0.00 0.00 0.01 89 1012.3
20210731132004 68 99 0.0 0.0 0.00 0.00 0.01 89 1012.2
20210731131004 68 109 0.0 0.0 0.00 0.00 0.01 89 1012.1
20210731130005 68 109 0.0 0.0 0.00 0.00 0.01 89 1012.0
20210731125004 68 109 0.0 0.0 0.00 0.00 0.01 89 1011.9
20210731124005 68 109 0.0 0.0 0.00 0.00 0.01 89 1011.8
20210731123004 68 109 0.0 0.0 0.00 0.00 0.01 89 1011.7
20210731122003 68 108 0.0 0.0 0.00 0.00 0.01 89 1011.7
20210731121003 68 107 0.0 0.0 0.00 0.00 0.01 89 1011.6
20210731120003 68 107 0.0 0.0 0.00 0.00 0.01 89 1011.5
20210731115003 68 107 0.0 0.0 0.00 0.00 0.01 89 1011.6
20210731114003 69 107 0.0 0.0 0.00 0.00 0.01 89 1011.7
20210731113003 69 107 0.0 0.0 0.00 0.00 0.01 89 1011.7
20210731112004 69 107 0.0 0.0 0.00 0.00 0.01 89 1011.7
20210731111005 69 107 0.0 0.0 0.00 0.00 0.01 89 1011.8
20210731110003 69 107 0.0 0.0 0.00 0.00 0.01 88 1011.9
20210731105003 70 107 0.0 0.0 0.00 0.00 0.01 88 1011.9
20210731104004 70 107 0.0 0.0 0.00 0.00 0.01 89 1012.1
20210731103004 70 107 0.0 0.0 0.00 0.00 0.01 89 1012.2
20210731102004 70 107 0.0 0.0 0.00 0.00 0.01 88 1012.3
20210731101005 70 107 0.0 0.0 0.00 0.00 0.01 88 1012.3
20210731100005 70 107 0.0 0.0 0.00 0.00 0.01 88 1012.5
20210731095004 70 107 0.0 0.0 0.00 0.00 0.01 88 1012.4
20210731094004 70 107 0.0 0.0 0.00 0.00 0.01 88 1012.5
20210731093004 70 107 0.0 0.0 0.00 0.00 0.01 88 1012.7
20210731092005 70 107 0.0 0.0 0.00 0.00 0.01 88 1012.7
20210731091005 70 107 0.0 0.0 0.00 0.00 0.01 88 1012.7
20210731090004 70 107 0.0 0.0 0.00 0.00 0.01 88 1012.7
20210731085004 70 107 0.0 0.0 0.00 0.00 0.01 88 1012.6
20210731084004 70 107 0.0 0.0 0.00 0.00 0.01 88 1012.6
20210731083004 71 107 0.0 0.0 0.00 0.00 0.01 88 1012.7
20210731082004 71 107 0.0 0.0 0.00 0.00 0.00 88 1012.7
20210731081005 71 107 0.0 0.0 0.00 0.00 0.00 88 1012.6
20210731080005 71 107 0.0 0.0 0.00 0.00 0.00 88 1012.5
20210731075004 71 107 0.0 0.0 0.00 0.00 0.00 88 1012.6
20210731074004 71 107 0.0 0.0 0.00 0.00 0.00 88 1012.6
20210731073004 71 107 0.0 0.0 0.00 0.00 0.00 87 1012.6
20210731072004 71 107 0.0 0.0 0.00 0.00 0.00 87 1012.6
20210731071004 71 107 0.0 0.0 0.00 0.00 0.00 87 1012.5
20210731070006 71 107 0.0 0.0 0.00 0.00 0.00 87 1012.5
20210731065005 71 107 0.0 0.0 0.00 0.00 0.10 87 1012.5
20210731064004 71 107 0.0 0.0 0.00 0.00 0.10 87 1012.4
20210731063004 71 107 0.0 1.0 0.00 0.00 0.10 87 1012.5
20210731062004 71 105 0.0 0.0 0.00 0.00 0.10 87 1012.3
20210731061003 70 105 0.0 0.0 0.00 0.00 0.10 87 1012.2
20210731060004 70 105 0.0 0.0 0.00 0.00 0.10 86 1012.2
20210731055003 70 105 0.0 0.0 0.00 0.00 0.10 86 1012.3
20210731054004 70 105 0.0 0.0 0.00 0.00 0.10 86 1012.4
20210731053003 70 105 0.0 0.0 0.00 0.00 0.10 86 1012.4
20210731052004 70 105 0.0 0.0 0.00 0.00 0.10 87 1012.2
20210731051004 70 105 0.0 0.0 0.00 0.00 0.10 86 1012.0
20210731050005 70 105 0.0 2.0 0.00 0.00 0.09 85 1011.9
20210731045003 70 109 0.0 5.0 0.00 0.00 0.09 85 1012.3
20210731044003 71 118 0.0 4.0 0.00 0.00 0.09 84 1012.4
20210731043004 71 135 0.0 4.0 0.00 0.00 0.09 82 1012.7
20210731042004 72 292 0.0 4.0 0.00 0.00 0.08 79 1012.5
20210731041005 72 293 0.0 5.0 0.00 0.00 0.07 77 1013.1
20210731040005 73 319 1.0 9.0 0.00 0.00 0.05 73 1013.1
20210731035004 74 298 7.0 11.0 0.00 0.00 0.04 70 1012.7
20210731034005 73 32 1.0 6.0 0.00 0.00 0.03 68 1012.1
20210731033004 73 46 0.0 8.0 0.00 0.00 0.03 67 1012.0
20210731032004 73 94 10.0 18.0 0.00 0.00 0.03 65 1011.6
20210731031005 74 161 12.0 24.0 0.00 0.00 0.02 65 1011.3
20210731030005 77 150 19.0 41.0 0.00 0.00 0.00 54 1010.5
20210731025004 80 126 9.0 29.0 0.00 0.00 0.00 47 1010.9
20210731024004 84 146 9.0 12.0 0.00 0.00 0.00 51 1010.8
20210731023005 85 243 2.0 4.0 0.00 0.00 0.00 52 1009.9
20210731022004 86 195 0.0 5.0 0.00 0.00 0.00 52 1009.7
20210731021004 87 252 2.0 4.0 0.00 0.00 0.00 52 1009.8
20210731020004 88 262 0.0 5.0 0.00 0.00 0.00 44 1009.6
20210731015004 89 344 0.0 2.0 0.00 0.00 0.00 44 1009.5
20210731014004 89 344 0.0 2.0 0.00 0.00 0.00 44 1009.3
20210731013004 89 344 0.0 2.0 0.00 0.00 0.00 44 1009.1
20210731012004 89 344 0.0 2.0 0.00 0.00 0.00 44 1009.1
20210731011005 89 344 0.0 5.0 0.00 0.00 0.00 45 1009.0
20210731010005 90 49 2.0 3.0 0.00 0.00 0.00 46 1008.6
20210731005005 90 138 0.0 4.0 0.00 0.00 0.00 45 1008.5
20210731004004 90 141 0.0 6.0 0.00 0.00 0.00 42 1008.4
20210731003004 90 255 4.0 6.0 0.00 0.00 0.00 41 1008.2
20210731002004 91 232 5.0 6.0 0.00 0.00 0.00 39 1007.9
20210731001003 91 228 2.0 8.0 0.00 0.00 0.00 38 1007.9
20210731000004 93 242 4.0 13.0 0.00 0.00 0.00 37 1007.9
20210730235003 95 223 1.0 11.0 0.00 0.00 0.00 34 1008.0
20210730234005 98 261 1.0 4.0 0.00 0.00 0.00 29 1008.0
20210730233004 98 5 0.0 4.0 0.00 0.00 0.00 29 1007.8
20210730232003 98 80 0.0 3.0 0.00 0.00 0.00 30 1007.8
20210730231004 98 22 0.0 3.0 0.00 0.00 0.00 29 1007.9
20210730230004 99 323 0.0 6.0 0.00 0.00 0.00 28 1008.1
20210730225004 99 261 3.0 7.0 0.00 0.00 0.00 27 1008.0
20210730224003 99 260 2.0 6.0 0.00 0.00 0.00 28 1008.1
20210730223004 99 264 3.0 7.0 0.00 0.00 0.00 28 1008.0
20210730222004 99 225 3.0 6.0 0.00 0.00 0.00 27 1008.0
20210730221003 99 239 0.0 6.0 0.00 0.00 0.00 27 1008.1
20210730220003 99 242 2.0 3.0 0.00 0.00 0.00 28 1008.3
20210730215004 98 242 1.0 4.0 0.00 0.00 0.00 28 1008.4
20210730214003 98 242 2.0 5.0 0.00 0.00 0.00 28 1008.6
20210730213004 98 243 3.0 6.0 0.00 0.00 0.00 29 1008.7
20210730212004 98 150 2.0 6.0 0.00 0.00 0.00 30 1008.8
20210730211004 98 224 2.0 6.0 0.00 0.00 0.00 29 1009.0
20210730210006 97 94 1.0 3.0 0.00 0.00 0.00 28 1009.1
20210730205004 97 305 0.0 3.0 0.00 0.00 0.00 30 1009.3
20210730204004 97 204 0.0 4.0 0.00 0.00 0.00 30 1009.4
20210730203004 96 175 0.0 3.0 0.00 0.00 0.00 31 1009.5
20210730202004 95 182 1.0 4.0 0.00 0.00 0.00 33 1009.7
20210730201005 94 115 3.0 4.0 0.00 0.00 0.00 32 1009.8
20210730200005 94 109 0.0 6.0 0.00 0.00 0.00 36 1009.9
20210730195005 94 69 0.0 5.0 0.00 0.00 0.00 35 1010.2
20210730194004 93 273 1.0 6.0 0.00 0.00 0.00 33 1010.2
20210730193004 93 273 1.0 4.0 0.00 0.00 0.00 33 1010.5
20210730192014 93 243 4.0 5.0 0.00 0.00 0.00 34 1010.6
20210730191004 93 5 0.0 4.0 0.00 0.00 0.00 35 1010.7
20210730190005 92 261 0.0 5.0 0.00 0.00 0.00 36 1010.8
20210730185004 92 292 2.0 8.0 0.00 0.00 0.00 35 1011.0
20210730184004 92 240 1.0 6.0 0.00 0.00 0.00 35 1011.0
20210730183004 92 232 5.0 5.0 0.00 0.00 0.00 37 1010.9